DW4691 Weather Reports


time (UTC)temp
F
wind
direction
speed
knots
gust
knots
rain 1hr
in
rain 24hr
in
rain mn
in
humidity
%
barometer
mb
20260831163052 92 0 0.0 2.6 0.00 0.00 0.00 61 1016.9
20260831161552 92 0 0.0 0.9 0.00 0.00 0.00 61 1017.0
20260831160059 91 0 0.0 1.7 0.00 0.00 0.00 61 1017.1
20260831154611 90 0 0.0 1.7 0.00 0.00 0.00 65 1017.0
20260831153052 89 0 0.0 0.0 0.00 0.00 0.00 63 1017.0
20260831151556 87 0 0.0 0.0 0.00 0.00 0.00 73 1016.9
20260831150054 86 0 0.0 0.0 0.00 0.00 0.00 81 1016.8
20260831144553 83 0 0.0 0.9 0.00 0.00 0.00 84 1016.8
20260831143100 82 0 0.0 0.0 0.00 0.00 0.00 87 1016.7
20260831141558 80 0 0.0 0.0 0.00 0.00 0.00 90 1016.6
20260831140051 79 0 0.0 0.0 0.00 0.00 0.00 90 1016.6
20260831134555 78 0 0.0 0.0 0.00 0.00 0.00 91 1016.5
20260831133052 77 0 0.0 0.0 0.00 0.00 0.00 92 1016.2
20260831131550 75 0 0.0 0.0 0.00 0.00 0.00 91 1016.2
20260831130058 75 0 0.0 0.0 0.00 0.00 0.00 91 1016.1
20260831124553 74 0 0.0 0.0 0.00 0.00 0.00 91 1016.0
20260831123053 74 0 0.0 0.0 0.00 0.00 0.00 91 1015.8
20260831121558 74 0 0.0 0.0 0.00 0.00 0.00 91 1015.5
20260831120136 74 0 0.0 0.0 0.00 0.00 0.00 91 1015.3
20260831114554 74 0 0.0 0.0 0.00 0.00 0.00 91 1015.1
20260831113105 74 0 0.0 0.0 0.00 0.00 0.00 91 1015.1
20260831111559 75 0 0.0 0.0 0.00 0.00 0.00 91 1015.2
20260831110056 75 0 0.0 0.0 0.00 0.00 0.00 90 1015.1
20260831104603 75 0 0.0 0.0 0.00 0.00 0.00 90 1015.1
20260831103105 75 0 0.0 0.0 0.00 0.00 0.00 90 1015.0
20260831101605 75 0 0.0 0.0 0.00 0.00 0.00 90 1015.0
20260831100106 76 0 0.0 0.0 0.00 0.00 0.00 90 1015.3
20260831094553 76 0 0.0 0.0 0.00 0.00 0.00 90 1015.2
20260831093055 76 0 0.0 0.0 0.00 0.00 0.00 90 1015.1
20260831091556 76 0 0.0 0.0 0.00 0.00 0.00 89 1014.9
20260831090105 77 0 0.0 0.0 0.00 0.00 0.00 89 1015.0
20260831084558 77 0 0.0 0.0 0.00 0.00 0.00 88 1014.9
20260831083100 77 0 0.0 0.0 0.00 0.00 0.00 88 1015.0
20260831081558 78 0 0.0 0.0 0.00 0.00 0.00 88 1015.1
20260831080057 78 0 0.0 0.0 0.00 0.00 0.00 87 1015.1
20260831074554 78 0 0.0 0.0 0.00 0.00 0.00 87 1015.2
20260831073057 78 0 0.0 0.0 0.00 0.00 0.00 87 1015.1
20260831071604 79 0 0.0 0.0 0.00 0.00 0.00 86 1015.1
20260831070105 79 0 0.0 0.0 0.00 0.00 0.00 86 1015.3
20260831064604 79 0 0.0 0.0 0.00 0.00 0.00 85 1015.3
20260831063055 80 0 0.0 0.0 0.00 0.00 0.00 84 1015.4
20260831061602 80 0 0.0 0.0 0.00 0.00 0.00 83 1015.3
20260831060112 81 0 0.0 0.0 0.00 0.00 0.00 82 1015.4
20260831054604 81 0 0.0 0.0 0.00 0.00 0.00 81 1015.4
20260831053126 81 0 0.0 0.0 0.00 0.00 0.00 80 1015.3
20260831051557 81 0 0.0 0.0 0.00 0.00 0.00 79 1015.2
20260831050112 82 0 0.0 0.0 0.00 0.00 0.00 78 1015.1
20260831044559 83 0 0.0 0.0 0.00 0.00 0.00 76 1015.2
20260831043054 84 0 0.0 0.0 0.00 0.00 0.00 75 1015.1
20260831041615 84 0 0.0 0.0 0.00 0.00 0.00 74 1015.0
20260831040055 84 0 0.0 0.0 0.00 0.00 0.00 72 1014.9
20260831034553 85 0 0.0 0.0 0.00 0.00 0.00 72 1014.7
20260831033106 85 0 0.0 0.0 0.00 0.00 0.00 70 1014.6
20260831031556 86 0 0.0 0.0 0.00 0.00 0.00 69 1014.5
20260831030058 86 0 0.0 0.0 0.00 0.00 0.00 68 1014.4
20260831024554 86 0 0.0 0.0 0.00 0.00 0.00 67 1014.1
20260831023103 87 0 0.0 0.0 0.00 0.00 0.00 66 1013.9
20260831021555 87 0 0.0 0.0 0.00 0.00 0.00 64 1013.7
20260831020109 88 0 0.0 0.0 0.00 0.00 0.00 62 1013.6
20260831014553 89 0 0.0 0.0 0.00 0.00 0.00 60 1013.5
20260831013104 90 0 0.0 0.0 0.00 0.00 0.00 59 1013.5
20260831011558 90 0 0.0 0.0 0.00 0.00 0.00 57 1013.2
20260831010056 91 0 0.0 7.0 0.00 0.00 0.00 54 1013.2
20260831004557 92 0 0.0 0.0 0.00 0.00 0.00 53 1013.2
20260831003048 93 0 0.0 0.9 0.00 0.00 0.00 52 1013.0
20260831001556 93 105 0.0 0.9 0.00 0.00 0.00 50 1012.9
20260831000059 94 0 0.0 0.9 0.00 0.00 0.00 49 1012.8
20260830234551 96 0 0.0 1.7 0.00 0.00 0.00 47 1012.9
20260830233056 96 0 0.0 0.9 0.00 0.00 0.00 45 1012.8
20260830231555 97 0 0.0 0.9 0.00 0.00 0.00 43 1012.8
20260830230053 97 0 0.0 2.6 0.00 0.00 0.00 43 1012.8
20260830224601 97 0 0.0 1.7 0.00 0.00 0.00 43 1012.9
20260830223055 98 0 0.0 0.9 0.00 0.00 0.00 43 1013.0
20260830221553 98 0 0.0 2.6 0.00 0.00 0.00 42 1013.0
20260830220101 98 0 0.0 3.5 0.00 0.00 0.00 44 1013.1
20260830214557 98 0 0.0 0.0 0.00 0.00 0.00 43 1013.2
20260830213049 99 0 0.0 0.9 0.00 0.00 0.00 44 1013.4
20260830211613 99 0 0.0 7.0 0.00 0.00 0.00 45 1013.6
20260830210054 98 0 0.0 1.7 0.00 0.00 0.00 45 1013.7
20260830204553 99 0 0.0 3.5 0.00 0.00 0.00 46 1014.0
20260830203049 99 128 0.0 1.7 0.00 0.00 0.00 45 1014.2
20260830201604 99 0 0.0 1.7 0.00 0.00 0.00 46 1014.4
20260830200054 98 0 0.0 0.0 0.00 0.00 0.00 47 1014.6
20260830194553 98 0 0.0 2.6 0.00 0.00 0.00 48 1015.0
20260830193059 97 0 0.0 3.5 0.00 0.00 0.00 50 1015.2
20260830191600 97 0 0.0 1.7 0.00 0.00 0.00 52 1015.4
20260830190103 95 0 0.0 1.7 0.00 0.00 0.00 53 1015.5
20260830184606 95 0 0.0 0.9 0.00 0.00 0.00 53 1015.8
20260830183108 95 0 0.0 1.7 0.00 0.00 0.00 55 1016.1
20260830181555 95 0 0.0 3.5 0.00 0.00 0.00 54 1016.3
20260830180117 94 0 0.0 3.5 0.00 0.00 0.00 57 1016.4
20260830174607 93 0 0.0 2.6 0.00 0.00 0.00 58 1016.7
20260830173128 93 0 0.0 0.0 0.00 0.00 0.00 59 1017.0
20260830171605 92 99 0.0 0.9 0.00 0.00 0.00 59 1017.1
20260830170056 91 0 0.0 1.7 0.00 0.00 0.00 62 1017.2
20260830164550 91 0 0.0 0.0 0.00 0.00 0.00 63 1017.4